Location: Gradaro
(45.0833°N, 10.8833°E)
Time: 13:27:24
(UTC+00:00)

Envisat - Pass Details

Date: 29 November 2020
Orbit: 764 x 766 km, 98.1° (Epoch: 25 January)

Event Time Altitude Azimuth Distance (km) Brightness Sun altitude
Rises 04:52:23 0° 17° (NNE) 3,245 6.3 -17.2°
Reaches altitude 10° 04:54:46 10° 22° (NNE) 2,314 5.6 -16.8°
Maximum altitude 04:59:45 53° 100° (E) 937 3.8 -15.9°
Drops below altitude 10° 05:04:42 10° 177° (S) 2,296 5.7 -15.1°
Sets 05:07:02 0° 182° (S) 3,217 6.4 -14.7°
